User: anonymous
Location: Unspecified
(0.0000°N, 0.0000°E)
Time: 18:30:25
(UTC+00:00)
Language:

Courier 1B Rocket - Orbit

View from above orbital plane
View from above orbital plane
View from above satellite
View from above satellite

Ground track
Ground track

The orbit data is extracted from the following two-line orbital elements,

1 00059U 60013B   14230.42993236  .00000093  00000-0  11415-4 0  9473
2 00059 028.2497 359.1483 0189350 049.0876 312.5903 13.52895597658445
Epoch (UTC): 18 August 2014 10:19:06
Eccentricity: 0.0189350
inclination: 28.2497°
perigee height: 921 km
apogee height: 1202 km
right ascension of ascending node: 359.1483°
argument of perigee: 49.0876°
revolutions per day: 13.52895597
mean anomaly at epoch: 312.5903°
orbit number at epoch: 65844

The dashed part of the orbit path shows where the satellite is in the earth's shadow,  

DLR